Location: Stoke Bliss
(52.2667°N, 2.5167°W)
Time: 19:49:01
(UTC+00:00)

Meteor 2-12 Rocket - Pass Details

Date: 03 March 2021
Orbit: 936 x 957 km, 82.5° (Epoch: 16 April)

Event Time Altitude Azimuth Distance (km) Brightness Sun altitude
Rises 18:50:50 0° 174° (S) 3,588 7.4 -9.6°
Reaches altitude 10° 18:53:20 10° 170° (S) 2,650 6.7 -10.0°
Maximum altitude 18:59:14 58° 94° (E) 1,098 4.5 -10.9°
Drops below altitude 10° 19:05:13 10° 17° (NNE) 2,681 6.7 -11.8°
Sets 19:07:46 0° 14° (NNE) 3,634 7.4 -12.2°
